ICEYE-X2

导读

ICEYE-X2是芬兰航天企业ICEYE推出的第二颗小型合成孔径雷达(SAR)卫星,于2018年12月3日发射。作为全球百公斤级SAR卫星技术的先行者,它在ICEYE-X1基础上优化了成像性能,支持多模式高分辨率对地观测,可用于洪水监测、船舶探测等领域,是ICEYE商用雷达卫星星座建设的关键节点,推动了微小型SAR卫星的商业化应用发展。

基本信息
目录编号:
43800
目录名称:
ICEYE-X2
国际标识:
2018-099AU
轨道中心:
EARTH
卫星名称:
ICEYE-X2
卫星全名:
--
卫星状态:
在轨 (已飞行2839 天)
发射日期:
2018-12-03 UTC
国别 :
(FI)
星等 :
--
该卫星已列入 空间交会检测服务 Space Conjunction Data Service (SCDS) ,当前飞行风险评估等级: 无高风险
轨道信息
数据来源 国际轨道数据 AOE轨道数据
星历时间 2026-09-11T06:57:25+0800
8小时前
查看轨道信息
2026-09-10T00:00:00+0800
1天前
查看轨道信息
半长轴 6888.015km 6888.063km
偏心率 0.0010277 0.0011279
轨道倾角 97.428° 97.431°
近地点辐角 13.071° 15.779°
升交点赤经 306.299° 305.029°
平近点角 347.079° 136.931°
近地点 502.799km 502.156km
远地点 516.957km 517.696km
周期 94.820分钟 94.821分钟
每日圈数 15.186638 15.18648
详细信息
使用方式:
暂无
2D轨道图
3D轨道图
轨道高度分析图
轨道倾角分析图
轨道综合分析图
查看轨道综合分析图
与全量物体交会距离演化趋势
与全量物体交会风险概率演化趋势